[Iaude] MPEC V42: 2016 VY [a=1.75,e=0.48,i=24.4,H=22.5]

mpec at si.edu mpec at si.edu
Sun Nov 6 17:06:04 EST 2016


M.P.E.C. 2016-V42                                Issued 2016 Nov. 6, 22:02 UT
 
     The Minor Planet Electronic Circulars contain information on unusual
         minor planets and routine data on comets.  They are published
    on behalf of Division F of the International Astronomical Union by the
          Minor Planet Center, Smithsonian Astrophysical Observatory,
                          Cambridge, MA 02138, U.S.A.

             Prepared using the Tamkin Foundation Computer Network

                              MPC at CFA.HARVARD.EDU
            URL http://www.minorplanetcenter.net/    ISSN 1523-6714


                                    2016 VY
 
Observations:
     K16V00Y* C2016 11 03.62162 05 25 10.502+25 23 36.55         20.9 wLEV042F51
     K16V00Y  C2016 11 03.62812 05 25 08.369+25 22 36.59         20.5 wLEV042F51
     K16V00Y  C2016 11 03.63460 05 25 06.229+25 21 36.13         20.3 wLEV042F51
     K16V00Y  C2016 11 03.64079 05 25 04.175+25 20 38.10               LEV042F51
     K16V00Y KC2016 11 04.25866 05 22 00.42 +23 46 21.7                oEV042291
     K16V00Y KC2016 11 04.26800 05 21 57.48 +23 44 57.9                oEV042291
     K16V00Y KC2016 11 04.27925 05 21 53.95 +23 43 17.8                oEV042291
     K16V00Y  C2016 11 04.30045 05 21 47.33 +23 40 08.6          19.5 RoEV042926
     K16V00Y  C2016 11 04.30380 05 21 46.27 +23 39 38.0          19.5 RoEV042926
     K16V00Y  C2016 11 04.30715 05 21 45.22 +23 39 09.3          19.6 RoEV042926
     K16V00Y _C2016 11 04.51597505 20 41.820+23 08 06.37         20.0 RUEV042568
     K16V00Y _C2016 11 04.51709205 20 41.466+23 07 56.36         20.1 RUEV042568
     K16V00Y _C2016 11 04.51813405 20 41.137+23 07 47.04         20.2 RUEV042568
     K16V00Y KC2016 11 04.99586 05 18 23.62 +21 56 44.7                qEV042J95
     K16V00Y KC2016 11 05.00435 05 18 21.12 +21 55 29.9                qEV042J95
     K16V00Y KC2016 11 05.01528 05 18 17.93 +21 53 54.3          19.9 RqEV042J95
     K16V00Y  C2016 11 05.24713 05 17 13.45 +21 20 21.7          20.0 RoEV042926
     K16V00Y  C2016 11 05.24994 05 17 12.60 +21 19 57.7          19.6 RoEV042926
     K16V00Y  C2016 11 05.25273 05 17 11.85 +21 19 35.4          20.0 RoEV042926
     K16V00Y KC2016 11 05.35711505 16 39.71 +21 04 28.5          20.2 VuEV042H21
     K16V00Y KC2016 11 05.36405805 16 37.63 +21 03 28.4          20.2 VuEV042H21
     K16V00Y KC2016 11 05.37080505 16 35.66 +21 02 29.7          20.3 VuEV042H21
     K16V00Y  C2016 11 05.43707 05 16 17.07 +20 53 03.4                qEV042I52
     K16V00Y  C2016 11 05.43783 05 16 16.86 +20 52 57.1          20.0 VqEV042I52
     K16V00Y  C2016 11 05.43859 05 16 16.62 +20 52 50.3          19.7 VqEV042I52
     K16V00Y KC2016 11 06.35889 05 12 07.93 +18 43 11.4                qEV042H36
     K16V00Y KC2016 11 06.37325 05 12 03.87 +18 41 13.5          19.6 RqEV042H36
     K16V00Y KC2016 11 06.38043 05 12 01.83 +18 40 14.0          19.6 RqEV042H36
     K16V00Y KC2016 11 06.39479 05 11 57.79 +18 38 14.8          20.0 RqEV042H36
 
Observer details:
291 LPL/Spacewatch II.  Observer A. F. Tubbiolo.  1.8-m f/2.7 reflector + CCD.
568 Mauna Kea.  Observers R. J. Wainscoat, C. Wipper, P. Forshay, D. Woodworth.
    Measurers M. Micheli, R. J. Wainscoat.  3.6-m Canada-France-Hawaii
    Telescope + CCD.
926 Tenagra II Observatory.  Observers M. Schwartz, P. R. Holvorcem.  Measurer
    M. Schwartz.  0.81-m f/7 Ritchey-Chretien + CCD.
F51 Pan-STARRS 1, Haleakala.  Observers B. Gibson, T. Goggia, S. Kahale,
    A. Schultz, M. Willman.  Measurers K. Chambers, S. Chastel, L. Denneau,
    H. Flewelling, M. Huber, E. Lilly, E. Magnier, R. Wainscoat, C. Waters,
    R. Weryk.  1.8-m Ritchey-Chretien + CCD.
H21 Astronomical Research Observatory, Westfield.  Observer R. Holmes.
    Measurers S. Foglia, L. Buzzi, T. Linder, R. Holmes.  0.76-m f/3.0
    astrograph + CCD.
H36 Sandlot Observatory, Scranton.  Observer G. Hug.  0.56-m reflector + CCD.
I52 Steward Observatory, Mt. Lemmon Station.  Observer R. G. Matheny.
    Measurers E. J. Christensen, D. C. Fuls, A. R. Gibbs, A. D. Grauer,
    J. A. Johnson, R. A. Kowalski, S. M. Larson, G. J. Leonard, R. G. Matheny,
    R. L. Seaman, F. C. Shelly.  1.0-m reflector + CCD.
J95 Great Shefford.  Observer P. Birtwhistle.  0.40-m f/6.0 Schmidt-Cassegrain
    + CCD.
 
Orbital elements:
2016 VY                                                  Earth MOID = 0.1023 AU
Epoch 2016 July 31.0 TT = JDT 2457600.5                 MPC
M 343.03302              (2000.0)            P               Q
n   0.42624593     Peri.  112.54471     +0.88074367     +0.36202634
a   1.7486218      Node   227.77519     -0.40979694     +0.90574206
e   0.4826064      Incl.   24.35093     +0.23739642     +0.22038207
P   2.31           H   22.5           G   0.15           U   6
Residuals in seconds of arc
161103 F51  0.0   0.3-    161104 568  0.1+  0.5-    161105 H21  0.7-  0.1+
161103 F51  0.2+  0.3+    161104 568  0.1+  0.5-    161105 H21  0.2-  0.1-
161103 F51  0.2+  0.1+    161104 568  0.1+  0.5-    161105 I52  0.2-  0.3-
161103 F51  0.0   0.3-    161104 J95  0.2+  0.3+    161105 I52  0.1+  0.0
161104 291  0.1-  0.2-    161105 J95  0.5+  0.4-    161105 I52  0.1-  0.2-
161104 291  0.6-  0.5-    161105 J95  1.4+  0.5-    161106 H36  0.4+  0.6-
161104 291  0.9-  0.0     161105 926  0.1-  0.0     161106 H36  0.1-  0.3+
161104 926  0.4-  0.1-    161105 926  0.5-  0.1+    161106 H36  0.5-  0.2+
161104 926  0.5-  0.8-    161105 926  0.4+  1.8+    161106 H36  0.9-  0.2-
161104 926  0.4-  0.5+    161105 H21  0.4-  0.1+

Ephemeris:
2016 VY                  a,e,i = 1.75, 0.48, 24                  q = 0.9047
Date    TT    R. A. (2000) Decl.     Delta      r     Elong.  Phase     V
2016 10 07    12 03 34.6 +70 07 09   0.2309  0.9700    76.0    90.6    22.5
...
2016 10 22    07 13 08.5 +58 37 58   0.1660  1.0473   103.8    67.3    21.1
...
2016 10 30    05 53 17.9 +37 55 23   0.1599  1.0961   126.7    46.6    20.5
...
2016 11 05    05 18 21.3 +21 56 42   0.1749  1.1351   142.4    32.2    20.4
2016 11 06    05 13 43.8 +19 33 28   0.1790  1.1418   144.5    30.2    20.4
2016 11 07    05 09 22.2 +17 16 33   0.1835  1.1485   146.5    28.4    20.4
...
2016 11 13    04 47 43.6 +05 54 34   0.2180  1.1894   154.0    21.4    20.6
...
2016 11 21    04 27 26.2 -03 44 32   0.2793  1.2454   154.3    20.1    21.2
...
2016 12 06    04 05 46.6 -11 28 18   0.4241  1.3525   144.3    25.2    22.5

A. U. Tomatic                (C) Copyright 2016 MPC           M.P.E.C. 2016-V42




More information about the Iaude mailing list